Torna al catalogo

THORAD DELTA 1 DEB

AttivoLEO
NORAD 8169·DEBRIS·🇺🇸 United States

Lanciato Nov 15, 1974 da Vandenberg Space Force Base

Loading…

Prossimi Passaggi (prossime 24 ore)

TLE

AggiornatoSource: Space-Track

Epoca: Sep 13, 2026, 23:12 UTC

1  8169U 74089AK  26256.96678330  .00000528  00000-0  20225-2 0  9993
2  8169 102.5178 260.9323 0125100 330.3308  56.6543 12.94575241412268

Traccia THORAD DELTA 1 DEB in tempo reale con AllMySat

Download on the App Store